STARLINK-2739 (48639 NORAD) Tracking and Keplerian Element Data

This shows tracking and keplerian element data for the satellite.

Feedback or suggestion? Click here.




ElementValue
Catalog48639
NameSTARLINK-2739
Epoch Orbit2251
Epoch Day287.98741293
Epoch Year2021
RAAN129.3699
Inclination53.0539
Eccentricity0.0001754
Argument of Perigee76.5578
Mean Anonmoly283.5606
Mean Motion15.06390954
Decay Rate-2.401E-05
L11 48639U 21044B 21287.98741293 -.00002401 00000-0 -14238-3 0 9994
L22 48639 53.0539 129.3699 0001754 76.5578 283.5606 15.06390954 22513

Live tracking and technical data element details for STARLINK-2739 (NORAD 48639). STARLINK-2739 can be tracked NOW for your location showing map with azimuth and elevation plus other details from your city location.

Track the satellite on the map from your city or location and see movement details for azimuth, elevation, latitude, longitude, range, height, and movement on the map or in text.







IsCatalogInMostPopularTable: catalog: 48639, numindb: 31
Update: records affected: 1



GetName: 48639 STARLINK-2739

Hit Count: updated at: Tue, 19 Oct 2021 09:21:05 GMT